Colorado Springs, CO

9:28 PM MDT on May 24, 2017 (GMT -0600)
City Of Colorado Springs Municipal

Weather History for KCOS - February, 2012

Change the Weather History Date:

Wednesday, February 15, 2012

  Actual Average Record
Temperature  
Mean Temperature 31 °F 32 °F  
Max Temperature 38 °F 45 °F 74 °F (1945)
Min Temperature 23 °F 19 °F -8 °F (1895)
Degree Days  
Heating Degree Days 34 33  
Month to date heating degree days 541 507  
Since 1 July heating degree days 3814 4150  
Cooling Degree Days 0 0  
Month to date cooling degree days 0 0  
Year to date cooling degree days 0 0  
Moisture  
Dew Point 19 °F    
Average Humidity 63    
Maximum Humidity 81    
Minimum Humidity 44    
Precipitation  
Precipitation 0.00 in 0.01 in 0.31 in (1910)
Month to date precipitation 0.22 0.15  
Year to date precipitation 0.24 0.47  
Snow  
Snow 0.00 in 0.10 in 5.50 in (1910)
Month to date snowfall 3.1 2.6  
Since 1 July snowfall 19.9 21.7  
Snow Depth 0.00 in    
Sea Level Pressure  
Sea Level Pressure 30.00 in    
Wind  
Wind Speed 12 mph (ENE)    
Max Wind Speed 25 mph    
Max Gust Speed 29 mph    
Visibility 10 miles    
Events      
T = Trace of Precipitation, MM = Missing Value Source: NWS Daily Summary

Daily Weather History Graph

Daily Weather History Graph

Search for Another Location

Airport or City:

Trip Planner

Search our weather history database for the weather conditions in past years. The results will help you decide how hot, cold, wet, or windy it might be!

Date:

Astronomy

Feb. 15, 2012 Rise Set
Actual Time 6:50 AM MST 5:35 PM MST
Civil Twilight 6:23 AM MST 6:03 PM MST
Nautical Twilight 5:52 AM MST 6:34 PM MST
Astronomical Twilight 5:21 AM MST 7:05 PM MST
Moon 1:44 AM MST (2/15) 11:35 AM MST (2/15)
Length of Visible Light 11h 40m
Length of Day
10h 45m
Last Quarter, 38% of the Moon is Illuminated
Feb 15
Last Quarter
Feb 21
New
Feb 29
First Quarter
Mar 8
Full
Mar 14
Last Quarter

Hourly Weather History & Observations

Time (MST) Temp. Windchill Dew Point Humidity Pressure Visibility Wind Dir Wind Speed Gust Speed Precip Events Conditions
12:54 AM 33.1 °F 23.4 °F 17.1 °F 52% 29.73 in 10.0 mi NNW 13.8 mph - N/A   Clear
1:54 AM 30.9 °F 20.2 °F 18.0 °F 59% 29.75 in 10.0 mi NNW 15.0 mph - N/A   Clear
2:54 AM 28.9 °F 18.2 °F 19.0 °F 67% 29.75 in 10.0 mi NNW 13.8 mph - N/A   Clear
3:54 AM 28.9 °F 19.2 °F 19.9 °F 69% 29.77 in 10.0 mi NNW 11.5 mph - N/A   Clear
4:54 AM 30.0 °F 19.1 °F 19.9 °F 66% 29.80 in 10.0 mi NNW 15.0 mph - N/A   Clear
5:54 AM 28.9 °F 18.6 °F 19.9 °F 69% 29.87 in 10.0 mi NNW 12.7 mph - N/A   Clear
6:54 AM 28.0 °F 17.5 °F 19.0 °F 69% 29.92 in 10.0 mi NNW 12.7 mph - N/A   Clear
7:54 AM 27.0 °F 12.2 °F 19.0 °F 72% 29.96 in 10.0 mi North 24.2 mph 28.8 mph N/A   Scattered Clouds
8:54 AM 32.0 °F 22.5 °F 19.9 °F 61% 30.00 in 10.0 mi North 12.7 mph - N/A   Scattered Clouds
9:54 AM 35.1 °F 27.4 °F 19.0 °F 52% 30.01 in 10.0 mi NNE 10.4 mph 18.4 mph N/A   Scattered Clouds
10:54 AM 34.0 °F 26.0 °F 19.0 °F 54% 30.00 in 10.0 mi ENE 10.4 mph - N/A   Mostly Cloudy
11:54 AM 35.1 °F 26.4 °F 18.0 °F 50% 30.02 in 10.0 mi ENE 12.7 mph - N/A   Mostly Cloudy
12:54 PM 36.0 °F 27.1 °F 18.0 °F 48% 29.99 in 10.0 mi ENE 13.8 mph - N/A   Mostly Cloudy
1:54 PM 37.0 °F 30.4 °F 18.0 °F 46% 29.99 in 10.0 mi SE 9.2 mph - N/A   Scattered Clouds
2:54 PM 37.0 °F 31.0 °F 18.0 °F 46% 30.01 in 10.0 mi SE 8.1 mph 18.4 mph N/A   Scattered Clouds
3:54 PM 37.0 °F 28.5 °F 17.1 °F 44% 30.02 in 10.0 mi SE 13.8 mph - N/A   Scattered Clouds
4:54 PM 34.0 °F 23.8 °F 17.1 °F 50% 30.07 in 10.0 mi SSE 16.1 mph - N/A   Scattered Clouds
5:54 PM 28.9 °F 19.8 °F 17.1 °F 61% 30.13 in 10.0 mi SE 10.4 mph - N/A   Partly Cloudy
6:54 PM 27.0 °F 19.5 °F 19.9 °F 75% 30.15 in 10.0 mi ESE 6.9 mph - N/A   Partly Cloudy
7:54 PM 25.0 °F 15.5 °F 19.0 °F 78% 30.20 in 10.0 mi SSE 9.2 mph - N/A   Partly Cloudy
8:54 PM 25.0 °F 18.1 °F 19.9 °F 81% 30.20 in 10.0 mi SSE 5.8 mph - N/A   Scattered Clouds
9:54 PM 26.1 °F 16.8 °F 21.0 °F 81% 30.19 in 10.0 mi SE 9.2 mph - N/A   Scattered Clouds
10:54 PM 26.1 °F 15.6 °F 21.0 °F 81% 30.20 in 10.0 mi SSE 11.5 mph - N/A   Partly Cloudy
11:54 PM 24.1 °F 17.0 °F 19.9 °F 84% 30.22 in 10.0 mi SSE 5.8 mph - N/A   Partly Cloudy